Total_Precipitation_Accumulation
0.32 0.40 0.36 0.43 0.42 0.38 0.33 0.36 0.41 0.44 0.61 0.67 0.56 0.52 0.60 0.61 0.80 0.63 0.33 0.14 0.05 0.02 0.00 0.01 0.03 0.03 0.07 0.04 0.07 0.08 0.13 0.13 0.08 0.11 0.17 0.19 0.13 0.07 0.05 0.05 0.03 0.05 0.07 0.13 0.18 0.22 0.28 0.28 0.28 0.32 0.35 0.36 0.36 0.59 0.82 0.90 1.23 1.40 1.84 2.02 2.36 2.33 2.92 3.40 3.28 3.47 3.24 2.99 2.65 2.71 2.17 2.15 2.42 2.55
0.33 0.35 0.41 0.38 0.39 0.36 0.40 0.49 0.39 0.39 0.58 0.60 0.62 0.63 0.60 0.63 0.89 0.72 0.53 0.29 0.10 0.05 0.01 0.00 0.01 0.01 0.02 0.06 0.08 0.06 0.07 0.18 0.10 0.11 0.12 0.18 0.16 0.11 0.11 0.05 0.05 0.03 0.03 0.05 0.10 0.15 0.20 0.27 0.27 0.25 0.25 0.33 0.32 0.38 0.58 0.75 1.16 1.53 1.64 1.91 2.04 1.86 2.04 2.31 2.83 2.91 2.85 2.96 2.84 2.35 2.10 2.03 2.25 2.47
0.39 0.46 0.42 0.38 0.39 0.36 0.39 0.45 0.45 0.47 0.56 0.57 0.56 0.52 0.53 0.68 0.68 0.78 0.68 0.65 0.22 0.06 0.06 0.03 0.00 0.01 0.02 0.03 0.06 0.10 0.12 0.10 0.07 0.14 0.15 0.18 0.18 0.14 0.12 0.10 0.06 0.05 0.06 0.02 0.04 0.09 0.15 0.23 0.29 0.28 0.26 0.26 0.32 0.33 0.37 0.52 0.78 1.13 1.46 1.68 1.91 1.97 1.73 1.97 2.03 2.41 2.47 2.57 2.65 2.48 2.21 2.04 1.98 2.08
0.32 0.36 0.43 0.42 0.39 0.40 0.48 0.51 0.51 0.52 0.56 0.60 0.70 0.70 0.63 0.61 0.60 0.70 0.91 0.77 0.43 0.09 0.05 0.06 0.05 0.05 0.06 0.11 0.06 0.07 0.09 0.13 0.09 0.12 0.11 0.17 0.18 0.20 0.17 0.11 0.11 0.07 0.04 0.05 0.04 0.04 0.08 0.17 0.26 0.27 0.29 0.26 0.30 0.29 0.35 0.36 0.50 0.87 1.01 1.62 1.80 1.94 1.88 1.69 1.88 1.97 2.19 2.49 2.55 2.51 2.35 2.17 2.09 2.14
0.27 0.36 0.43 0.46 0.41 0.46 0.55 0.57 0.60 0.56 0.59 0.70 0.77 0.79 0.85 0.71 0.60 0.68 0.88 0.80 0.51 0.16 0.16 0.08 0.08 0.11 0.12 0.15 0.11 0.09 0.06 0.13 0.12 0.13 0.09 0.13 0.14 0.21 0.22 0.21 0.15 0.12 0.08 0.04 0.05 0.13 0.10 0.10 0.20 0.28 0.36 0.35 0.34 0.31 0.32 0.32 0.35 0.45 0.64 0.91 1.47 1.74 2.02 1.80 1.62 1.69 2.11 2.17 2.45 2.62 2.66 2.40 2.21 2.23
0.22 0.35 0.32 0.29 0.32 0.38 0.51 0.85 0.68 0.53 0.57 0.63 0.80 0.79 0.84 0.84 0.67 0.55 0.89 0.91 0.74 0.33 0.20 0.10 0.12 0.15 0.15 0.22 0.18 0.10 0.05 0.05 0.08 0.11 0.11 0.10 0.09 0.16 0.13 0.19 0.21 0.18 0.14 0.10 0.07 0.06 0.06 0.14 0.14 0.37 0.30 0.33 0.37 0.33 0.31 0.31 0.29 0.36 0.42 0.55 1.01 1.50 1.87 1.80 1.59 1.62 1.59 1.90 2.33 2.53 2.65 2.46 2.26 2.15
0.27 0.33 0.30 0.29 0.28 0.37 0.45 0.48 0.61 0.69 0.73 0.60 0.74 0.75 0.75 0.77 0.65 0.54 0.69 0.93 0.92 0.59 0.35 0.13 0.18 0.18 0.26 0.22 0.23 0.16 0.10 0.06 0.05 0.11 0.07 0.09 0.09 0.08 0.13 0.17 0.15 0.18 0.19 0.16 0.10 0.07 0.07 0.22 0.15 0.16 0.32 0.38 0.36 0.31 0.32 0.34 0.30 0.30 0.30 0.36 0.61 0.94 1.52 1.95 1.72 1.58 1.58 1.70 1.98 2.08 2.31 2.60 2.40 2.34
0.28 0.31 0.34 0.28 0.32 0.34 0.39 0.40 0.43 0.48 0.62 0.68 0.86 0.72 0.72 0.80 0.78 0.59 0.60 0.76 0.94 0.72 0.45 0.29 0.16 0.20 0.25 0.26 0.24 0.20 0.16 0.15 0.11 0.09 0.08 0.07 0.07 0.07 0.10 0.14 0.12 0.12 0.14 0.17 0.18 0.16 0.10 0.09 0.11 0.16 0.23 0.31 0.37 0.34 0.32 0.30 0.28 0.25 0.23 0.34 0.37 0.64 0.95 1.82 1.98 1.79 1.46 1.55 1.67 1.97 1.96 2.27 2.43 2.26
0.23 0.26 0.29 0.28 0.32 0.33 0.39 0.35 0.40 0.39 0.45 0.54 0.64 0.69 0.65 0.74 0.68 0.72 0.78 0.86 0.90 0.91 0.73 0.50 0.36 0.28 0.27 0.33 0.33 0.26 0.28 0.24 0.21 0.17 0.13 0.11 0.11 0.10 0.08 0.08 0.07 0.06 0.10 0.15 0.18 0.20 0.18 0.11 0.08 0.08 0.12 0.28 0.37 0.36 0.30 0.28 0.26 0.24 0.23 0.25 0.33 0.52 0.60 0.90 1.68 1.96 1.73 1.37 1.44 1.64 1.89 1.97 2.44 2.31
0.26 0.32 0.36 0.27 0.32 0.35 0.41 0.40 0.37 0.36 0.42 0.51 0.61 0.67 0.70 0.65 0.72 0.72 0.68 0.71 0.88 0.94 0.73 0.54 0.51 0.42 0.43 0.46 0.38 0.35 0.30 0.30 0.29 0.25 0.21 0.15 0.12 0.13 0.14 0.12 0.11 0.07 0.06 0.09 0.16 0.19 0.24 0.24 0.15 0.09 0.10 0.13 0.23 0.35 0.37 0.31 0.22 0.26 0.23 0.25 0.27 0.44 0.60 0.71 0.91 1.63 1.81 1.73 1.25 1.47 1.74 1.92 2.20 2.23
0.27 0.28 0.31 0.33 0.35 0.41 0.48 0.51 0.52 0.50 0.47 0.52 0.57 0.63 0.71 0.74 0.71 0.65 0.66 0.67 0.71 0.86 0.77 0.64 0.64 0.52 0.44 0.42 0.42 0.42 0.38 0.36 0.31 0.29 0.26 0.23 0.18 0.13 0.12 0.19 0.15 0.10 0.07 0.09 0.08 0.13 0.14 0.16 0.21 0.16 0.11 0.12 0.15 0.27 0.28 0.42 0.43 0.26 0.28 0.36 0.29 0.36 0.51 0.61 0.61 0.88 1.50 1.68 1.79 1.29 1.42 1.66 1.73 1.83
0.28 0.30 0.33 0.33 0.36 0.40 0.48 0.54 0.54 0.60 0.60 0.65 0.77 0.70 0.60 0.62 0.70 0.72 0.66 0.63 0.68 0.73 0.69 0.76 0.66 0.52 0.50 0.50 0.45 0.49 0.59 0.66 0.53 0.37 0.31 0.27 0.20 0.18 0.12 0.11 0.17 0.22 0.23 0.14 0.10 0.10 0.12 0.14 0.15 0.15 0.14 0.12 0.14 0.20 0.32 0.29 0.32 0.28 0.28 0.34 0.35 0.32 0.40 0.37 0.51 0.60 0.87 1.31 1.57 1.66 1.49 1.54 1.60 1.68
0.26 0.25 0.30 0.37 0.40 0.40 0.41 0.42 0.44 0.50 0.63 0.76 0.92 0.64 0.63 0.75 0.80 0.78 0.71 0.67 0.61 0.62 0.62 0.62 0.65 0.71 0.66 0.60 0.62 0.67 0.72 0.67 0.50 0.36 0.33 0.29 0.21 0.17 0.16 0.14 0.12 0.16 0.20 0.21 0.23 0.18 0.17 0.16 0.17 0.18 0.17 0.14 0.14 0.14 0.25 0.34 0.39 0.34 0.41 0.35 0.33 0.36 0.38 0.39 0.41 0.44 0.60 0.80 1.14 1.41 1.68 1.89 1.67 1.72
0.28 0.24 0.24 0.29 0.34 0.36 0.35 0.37 0.41 0.47 0.51 0.68 0.67 0.71 0.92 0.92 0.94 0.88 0.85 0.83 0.74 0.66 0.68 0.54 0.67 0.67 0.63 0.57 0.59 0.58 0.49 0.54 0.49 0.48 0.49 0.44 0.36 0.32 0.27 0.22 0.20 0.19 0.22 0.24 0.26 0.21 0.18 0.17 0.18 0.20 0.18 0.17 0.13 0.13 0.18 0.29 0.39 0.36 0.37 0.52 0.63 0.47 0.35 0.37 0.34 0.39 0.44 0.65 0.76 1.06 1.34 1.73 2.01 1.85
0.30 0.29 0.26 0.23 0.25 0.26 0.24 0.27 0.31 0.35 0.52 0.58 0.50 0.54 0.66 0.77 0.99 1.13 0.95 0.78 0.82 0.86 0.80 0.78 0.95 0.98 0.84 0.77 0.60 0.62 0.66 0.65 0.75 0.56 0.51 0.51 0.60 0.57 0.49 0.42 0.29 0.23 0.23 0.24 0.24 0.23 0.20 0.20 0.20 0.18 0.17 0.29 0.29 0.13 0.12 0.16 0.41 0.37 0.36 0.46 0.50 0.59 0.52 0.41 0.48 0.39 0.43 0.49 0.65 0.78 0.98 1.27 1.54 1.93
0.37 0.34 0.36 0.29 0.31 0.29 0.25 0.25 0.29 0.39 0.49 0.41 0.41 0.46 0.58 0.68 0.76 0.82 1.04 0.96 0.79 0.78 0.84 0.85 0.92 1.08 1.05 0.88 0.74 0.84 0.94 0.82 0.85 0.83 0.86 0.72 0.70 0.69 0.58 0.38 0.30 0.25 0.21 0.24 0.26 0.24 0.22 0.20 0.23 0.22 0.17 0.15 0.15 0.15 0.16 0.13 0.18 0.28 0.37 0.36 0.44 0.49 0.50 0.46 0.59 0.59 0.48 0.50 0.61 0.66 0.78 0.96 1.20 1.52
0.28 0.26 0.26 0.27 0.25 0.28 0.25 0.30 0.39 0.57 0.46 0.33 0.33 0.38 0.51 0.56 0.63 0.75 0.88 0.86 0.77 0.79 0.83 0.78 0.70 0.76 0.93 0.88 0.81 0.95 0.95 0.95 0.93 0.83 0.85 0.80 0.70 0.66 0.67 0.52 0.38 0.30 0.28 0.35 0.39 0.34 0.25 0.23 0.24 0.25 0.21 0.19 0.15 0.16 0.18 0.18 0.21 0.25 0.37 0.45 0.42 0.46 0.45 0.42 0.43 0.54 0.55 0.63 0.69 0.72 0.68 0.81 1.05 1.17
0.23 0.25 0.32 0.30 0.29 0.29 0.28 0.33 0.56 0.60 0.42 0.31 0.31 0.39 0.51 0.52 0.47 0.51 0.59 0.76 0.86 0.79 0.84 0.77 0.71 0.64 0.73 0.77 0.77 0.83 0.91 0.98 1.06 0.85 0.79 0.68 0.75 0.82 0.87 0.63 0.61 0.59 0.57 0.55 0.54 0.45 0.31 0.24 0.22 0.22 0.19 0.17 0.19 0.18 0.20 0.20 0.22 0.28 0.36 0.43 0.49 0.48 0.48 0.46 0.46 0.55 0.54 0.57 0.63 0.83 0.83 0.81 0.93 1.15
0.24 0.20 0.21 0.25 0.27 0.32 0.27 0.34 0.52 0.64 0.61 0.47 0.42 0.45 0.48 0.50 0.47 0.46 0.52 0.59 0.63 0.74 0.83 0.80 0.73 0.65 0.62 0.67 0.65 0.72 0.80 0.89 0.98 1.01 0.84 0.73 0.72 0.87 1.07 0.87 0.74 0.74 0.71 0.65 0.70 0.70 0.39 0.27 0.22 0.19 0.16 0.16 0.15 0.17 0.20 0.20 0.24 0.28 0.31 0.40 0.49 0.53 0.52 0.54 0.53 0.51 0.53 0.61 0.65 0.60 0.71 0.89 0.85 1.09
0.26 0.21 0.21 0.24 0.25 0.31 0.26 0.33 0.41 0.47 0.46 0.37 0.43 0.46 0.45 0.49 0.49 0.48 0.50 0.54 0.62 0.73 0.84 0.85 0.83 0.86 0.77 0.77 0.80 0.81 0.82 0.90 0.93 0.92 0.83 0.84 0.91 0.92 0.96 0.83 0.65 0.61 0.68 0.65 0.67 0.54 0.45 0.33 0.25 0.20 0.17 0.17 0.18 0.16 0.15 0.15 0.19 0.23 0.27 0.31 0.39 0.49 0.52 0.53 0.57 0.58 0.57 0.59 0.65 0.60 0.66 0.82 0.97 0.98
0.37 0.52 0.37 0.37 0.46 0.44 0.34 0.37 0.45 0.50 0.46 0.38 0.38 0.39 0.40 0.42 0.44 0.45 0.45 0.49 0.66 0.72 0.70 0.71 0.73 0.73 0.76 0.76 0.76 0.78 0.74 0.80 0.93 1.05 1.08 0.87 0.64 0.72 0.79 0.63 0.59 0.53 0.59 0.69 0.62 0.51 0.41 0.31 0.28 0.30 0.26 0.21 0.18 0.18 0.17 0.15 0.17 0.18 0.23 0.24 0.28 0.36 0.44 0.48 0.50 0.55 0.58 0.59 0.66 0.69 0.68 0.75 0.80 0.97
0.30 0.27 0.26 0.37 0.52 0.50 0.44 0.38 0.46 0.46 0.59 0.46 0.44 0.39 0.36 0.37 0.38 0.35 0.36 0.43 0.51 0.64 0.77 0.90 0.86 0.92 0.98 0.96 0.85 0.89 0.98 0.97 1.07 1.11 1.06 0.80 0.75 0.83 0.70 0.63 0.50 0.50 0.57 0.69 0.66 0.68 0.45 0.38 0.34 0.33 0.32 0.32 0.28 0.22 0.18 0.17 0.16 0.17 0.22 0.22 0.24 0.25 0.32 0.40 0.46 0.48 0.51 0.57 0.58 0.63 0.72 0.74 0.81 0.95
0.29 0.28 0.25 0.26 0.38 0.43 0.40 0.38 0.44 0.46 0.50 0.43 0.42 0.44 0.42 0.40 0.37 0.34 0.33 0.38 0.47 0.53 0.58 0.64 0.77 0.80 0.83 0.95 0.84 0.77 0.79 0.86 0.90 1.04 1.05 0.81 0.80 0.87 0.74 0.77 0.80 0.80 0.70 0.66 0.82 0.78 0.50 0.55 0.52 0.40 0.48 0.47 0.31 0.23 0.22 0.21 0.22 0.19 0.21 0.24 0.28 0.25 0.26 0.28 0.31 0.41 0.46 0.60 0.52 0.58 0.63 0.72 0.80 0.99
0.23 0.20 0.23 0.23 0.38 0.39 0.38 0.44 0.50 0.59 0.72 0.57 0.48 0.40 0.43 0.47 0.44 0.35 0.33 0.33 0.40 0.46 0.48 0.53 0.60 0.64 0.68 0.88 0.89 0.77 0.72 0.78 0.84 0.84 0.73 0.70 0.73 0.73 0.71 0.80 0.86 0.83 0.63 0.55 0.77 0.76 0.52 0.63 0.66 0.67 0.53 0.41 0.38 0.29 0.24 0.25 0.22 0.22 0.20 0.22 0.28 0.26 0.28 0.26 0.27 0.29 0.38 0.45 0.57 0.64 0.61 0.63 0.79 0.90
0.23 0.22 0.23 0.26 0.32 0.38 0.41 0.47 0.65 0.64 0.65 0.54 0.58 0.67 0.58 0.48 0.39 0.28 0.25 0.27 0.31 0.37 0.38 0.40 0.44 0.48 0.60 0.74 0.83 0.76 0.79 0.79 0.81 0.80 0.69 0.71 0.74 0.76 0.69 0.66 0.62 0.61 0.56 0.54 0.57 0.62 0.67 0.68 0.74 0.76 0.70 0.63 0.42 0.30 0.26 0.23 0.24 0.25 0.25 0.23 0.25 0.24 0.29 0.28 0.28 0.32 0.32 0.40 0.48 0.66 0.67 0.71 0.76 0.83
0.23 0.22 0.23 0.23 0.26 0.32 0.40 0.42 0.46 0.59 0.60 0.55 0.52 0.50 0.69 0.63 0.52 0.29 0.23 0.24 0.28 0.32 0.34 0.35 0.36 0.38 0.43 0.56 0.66 0.62 0.65 0.72 0.73 0.75 0.70 0.67 0.72 0.77 0.80 0.76 0.73 0.63 0.57 0.46 0.53 0.61 0.59 0.65 0.56 0.67 0.62 0.56 0.47 0.39 0.37 0.33 0.30 0.30 0.30 0.28 0.26 0.24 0.25 0.28 0.28 0.28 0.31 0.32 0.39 0.50 0.65 0.73 0.84 0.94
0.20 0.20 0.22 0.22 0.23 0.26 0.27 0.35 0.37 0.52 0.67 0.65 0.67 0.77 0.54 0.50 0.48 0.49 0.44 0.43 0.38 0.30 0.29 0.30 0.33 0.30 0.30 0.39 0.54 0.51 0.51 0.57 0.64 0.70 0.73 0.65 0.75 1.01 0.79 0.74 0.83 0.81 0.77 0.65 0.62 0.64 0.65 0.65 0.57 0.70 0.59 0.46 0.50 0.55 0.48 0.42 0.37 0.40 0.36 0.33 0.33 0.31 0.39 0.31 0.29 0.28 0.25 0.28 0.30 0.46 0.59 0.64 0.72 0.88
0.25 0.28 0.26 0.23 0.23 0.27 0.31 0.32 0.34 0.41 0.54 0.45 0.45 0.55 0.50 0.48 0.50 0.46 0.51 0.44 0.37 0.33 0.30 0.29 0.29 0.28 0.28 0.28 0.33 0.42 0.45 0.57 0.66 0.62 0.57 0.60 0.77 0.70 0.73 0.82 0.67 0.66 0.67 0.70 0.66 0.69 0.68 0.66 0.55 0.48 0.54 0.55 0.56 0.57 0.50 0.43 0.41 0.43 0.43 0.36 0.36 0.36 0.35 0.30 0.31 0.33 0.34 0.30 0.32 0.38 0.45 0.59 0.65 0.69
0.19 0.22 0.22 0.23 0.22 0.25 0.23 0.21 0.27 0.42 0.42 0.33 0.32 0.34 0.42 0.35 0.37 0.48 0.51 0.46 0.38 0.38 0.32 0.24 0.19 0.20 0.19 0.21 0.24 0.29 0.45 0.48 0.68 0.78 0.72 0.73 0.64 0.58 0.64 0.74 0.69 0.63 0.75 0.74 0.83 0.87 0.74 0.67 0.62 0.56 0.57 0.46 0.54 0.50 0.45 0.45 0.45 0.50 0.48 0.52 0.50 0.40 0.35 0.32 0.33 0.32 0.36 0.45 0.39 0.44 0.45 0.55 0.64 0.68
0.16 0.19 0.19 0.18 0.21 0.21 0.22 0.20 0.33 0.33 0.27 0.27 0.27 0.31 0.34 0.38 0.45 0.51 0.44 0.38 0.40 0.38 0.27 0.20 0.17 0.16 0.16 0.18 0.20 0.24 0.38 0.57 0.72 0.70 0.67 0.60 0.53 0.58 0.63 0.67 0.66 0.67 0.67 0.70 0.78 0.93 0.80 0.74 0.72 0.70 0.63 0.58 0.51 0.48 0.45 0.52 0.59 0.52 0.55 0.55 0.51 0.58 0.64 0.50 0.45 0.35 0.39 0.42 0.48 0.45 0.44 0.42 0.55 0.74
0.21 0.22 0.23 0.28 0.31 0.28 0.26 0.27 0.19 0.15 0.20 0.26 0.28 0.26 0.27 0.33 0.36 0.45 0.42 0.35 0.32 0.31 0.28 0.23 0.18 0.16 0.16 0.18 0.21 0.26 0.35 0.54 0.53 0.54 0.61 0.63 0.57 0.52 0.54 0.62 0.63 0.63 0.68 0.66 0.74 0.78 0.82 0.78 0.77 0.81 0.78 0.69 0.66 0.56 0.50 0.54 0.63 0.61 0.69 0.62 0.62 0.73 0.68 0.58 0.47 0.40 0.41 0.48 0.50 0.51 0.44 0.45 0.44 0.59
0.19 0.22 0.30 0.31 0.27 0.25 0.26 0.24 0.22 0.21 0.18 0.16 0.18 0.23 0.31 0.34 0.35 0.28 0.33 0.26 0.30 0.25 0.23 0.19 0.17 0.20 0.22 0.28 0.24 0.26 0.25 0.28 0.36 0.40 0.50 0.64 0.64 0.61 0.58 0.61 0.66 0.61 0.61 0.61 0.62 0.65 0.70 0.79 0.85 0.99 0.85 0.66 0.80 0.74 0.65 0.71 0.69 0.61 0.67 0.78 0.71 0.61 0.62 0.76 0.68 0.61 0.53 0.49 0.49 0.50 0.48 0.46 0.44 0.51
0.19 0.19 0.19 0.23 0.23 0.21 0.25 0.24 0.20 0.18 0.19 0.19 0.17 0.18 0.28 0.32 0.31 0.39 0.26 0.27 0.25 0.24 0.27 0.25 0.21 0.21 0.22 0.23 0.24 0.26 0.34 0.23 0.22 0.29 0.38 0.49 0.62 0.69 0.65 0.67 0.58 0.57 0.58 0.63 0.69 0.68 0.71 0.74 0.74 1.05 1.02 0.74 0.78 0.80 0.82 0.84 0.81 0.72 0.71 0.79 0.78 0.72 0.64 0.63 0.63 0.61 0.59 0.62 0.56 0.49 0.49 0.46 0.42 0.45
0.19 0.20 0.20 0.20 0.22 0.19 0.18 0.16 0.16 0.16 0.19 0.20 0.19 0.20 0.27 0.35 0.36 0.42 0.33 0.29 0.29 0.26 0.28 0.35 0.25 0.27 0.30 0.34 0.27 0.30 0.24 0.21 0.19 0.22 0.28 0.40 0.48 0.61 0.73 0.69 0.58 0.50 0.51 0.54 0.57 0.66 0.73 0.73 0.65 0.69 0.83 0.86 0.79 0.82 0.89 0.94 0.89 0.81 0.86 0.89 0.85 0.75 0.65 0.59 0.57 0.58 0.61 0.58 0.58 0.64 0.59 0.56 0.49 0.47
0.13 0.15 0.16 0.19 0.21 0.21 0.18 0.19 0.20 0.22 0.26 0.23 0.21 0.23 0.26 0.27 0.36 0.40 0.32 0.36 0.38 0.41 0.35 0.30 0.30 0.24 0.25 0.28 0.34 0.25 0.21 0.19 0.19 0.22 0.23 0.28 0.43 0.52 0.55 0.57 0.48 0.46 0.51 0.52 0.51 0.56 0.65 0.78 0.83 0.90 0.90 0.94 1.00 1.07 0.96 0.98 0.88 0.88 0.84 0.83 0.77 0.73 0.67 0.64 0.60 0.58 0.60 0.62 0.62 0.61 0.57 0.51 0.50 0.49
0.14 0.14 0.14 0.16 0.19 0.25 0.27 0.24 0.25 0.27 0.28 0.26 0.26 0.25 0.24 0.23 0.25 0.31 0.29 0.39 0.28 0.32 0.42 0.32 0.31 0.32 0.30 0.28 0.30 0.30 0.27 0.22 0.24 0.25 0.26 0.28 0.35 0.40 0.43 0.43 0.39 0.37 0.40 0.47 0.50 0.54 0.60 0.66 0.77 0.90 0.99 1.08 1.00 1.06 1.04 1.00 0.92 0.90 0.84 0.77 0.71 0.71 0.69 0.71 0.70 0.74 0.77 0.70 0.66 0.57 0.59 0.60 0.52 0.49
0.13 0.14 0.16 0.16 0.17 0.19 0.24 0.30 0.32 0.31 0.33 0.33 0.29 0.28 0.29 0.26 0.25 0.27 0.26 0.27 0.27 0.26 0.29 0.26 0.25 0.27 0.29 0.27 0.26 0.28 0.29 0.32 0.33 0.30 0.28 0.25 0.25 0.30 0.37 0.36 0.33 0.33 0.36 0.37 0.43 0.50 0.61 0.65 0.71 0.81 0.89 0.90 0.86 0.86 0.84 0.76 0.73 0.75 0.83 0.72 0.72 0.73 0.72 0.75 0.79 0.76 0.77 0.73 0.70 0.58 0.44 0.37 0.41 0.44
0.13 0.15 0.17 0.19 0.19 0.19 0.22 0.26 0.29 0.30 0.31 0.31 0.32 0.34 0.34 0.28 0.23 0.22 0.23 0.29 0.33 0.29 0.25 0.22 0.21 0.22 0.25 0.24 0.27 0.28 0.30 0.31 0.30 0.33 0.30 0.29 0.32 0.33 0.33 0.36 0.36 0.30 0.29 0.32 0.39 0.41 0.49 0.55 0.65 0.73 0.85 0.95 0.84 0.68 0.57 0.54 0.55 0.60 0.62 0.72 0.76 0.83 0.78 0.73 0.73 0.76 0.78 0.77 0.74 0.65 0.52 0.46 0.43 0.45
0.15 0.16 0.18 0.19 0.21 0.21 0.22 0.25 0.28 0.26 0.25 0.26 0.28 0.30 0.29 0.24 0.21 0.19 0.20 0.24 0.26 0.26 0.24 0.24 0.22 0.22 0.26 0.23 0.23 0.23 0.27 0.30 0.32 0.32 0.27 0.28 0.26 0.28 0.31 0.31 0.32 0.35 0.34 0.36 0.36 0.42 0.49 0.53 0.59 0.65 0.70 0.74 0.75 0.71 0.65 0.57 0.55 0.62 0.68 0.71 0.71 0.70 0.78 0.81 0.73 0.67 0.80 0.87 0.80 0.84 0.96 0.95 0.68 0.69
0.16 0.16 0.17 0.18 0.18 0.20 0.21 0.22 0.23 0.24 0.24 0.25 0.26 0.26 0.26 0.23 0.21 0.22 0.22 0.23 0.23 0.22 0.22 0.25 0.25 0.24 0.27 0.28 0.25 0.25 0.24 0.26 0.26 0.23 0.22 0.24 0.26 0.26 0.25 0.25 0.24 0.27 0.39 0.39 0.40 0.40 0.43 0.46 0.47 0.55 0.56 0.56 0.59 0.64 0.64 0.60 0.63 0.68 0.70 0.75 0.69 0.69 0.82 0.82 0.77 0.75 0.69 0.69 0.77 0.91 0.89 0.80 0.91 0.86
0.15 0.15 0.15 0.16 0.17 0.18 0.19 0.19 0.20 0.21 0.22 0.21 0.21 0.22 0.22 0.21 0.20 0.23 0.25 0.26 0.25 0.25 0.24 0.24 0.26 0.27 0.27 0.29 0.28 0.29 0.26 0.24 0.23 0.22 0.21 0.21 0.23 0.24 0.24 0.25 0.31 0.27 0.31 0.37 0.34 0.37 0.36 0.31 0.33 0.37 0.48 0.56 0.54 0.58 0.76 0.76 0.76 0.78 0.79 0.77 0.71 0.71 0.74 0.81 0.84 0.84 0.81 0.74 0.70 0.75 0.80 0.90 0.86 0.78
0.15 0.15 0.14 0.14 0.15 0.16 0.18 0.19 0.18 0.19 0.19 0.19 0.19 0.19 0.20 0.19 0.19 0.21 0.20 0.21 0.22 0.23 0.24 0.24 0.25 0.25 0.25 0.25 0.24 0.24 0.25 0.25 0.25 0.24 0.23 0.24 0.25 0.24 0.24 0.28 0.33 0.33 0.29 0.27 0.25 0.23 0.21 0.25 0.32 0.35 0.49 0.75 0.69 0.76 0.80 0.69 0.65 0.64 0.67 0.67 0.68 0.71 0.76 0.77 0.75 0.81 0.94 0.93 0.84 0.79 0.82 0.90 0.83 0.82
0.13 0.13 0.13 0.13 0.14 0.15 0.16 0.17 0.17 0.18 0.18 0.19 0.20 0.21 0.21 0.20 0.19 0.20 0.20 0.21 0.23 0.24 0.25 0.24 0.25 0.25 0.26 0.25 0.25 0.26 0.26 0.26 0.28 0.28 0.25 0.24 0.26 0.27 0.26 0.24 0.21 0.22 0.23 0.18 0.17 0.18 0.22 0.25 0.29 0.37 0.46 0.55 0.62 0.62 0.61 0.52 0.49 0.51 0.56 0.57 0.61 0.68 0.79 0.80 0.78 0.79 0.82 0.80 0.74 0.79 0.94 1.01 0.88 0.87
0.13 0.13 0.12 0.12 0.14 0.14 0.15 0.16 0.16 0.17 0.18 0.20 0.22 0.22 0.22 0.23 0.23 0.24 0.24 0.26 0.28 0.30 0.30 0.29 0.28 0.28 0.29 0.29 0.27 0.28 0.29 0.28 0.29 0.30 0.28 0.25 0.24 0.23 0.23 0.22 0.21 0.22 0.25 0.26 0.27 0.29 0.26 0.29 0.31 0.33 0.42 0.45 0.39 0.45 0.49 0.47 0.47 0.48 0.55 0.59 0.67 0.62 0.70 0.86 0.87 0.83 0.83 0.83 0.81 0.73 0.76 0.72 0.69 0.64
0.13 0.12 0.12 0.11 0.12 0.13 0.13 0.14 0.14 0.16 0.18 0.20 0.21 0.21 0.20 0.20 0.21 0.23 0.23 0.24 0.27 0.28 0.29 0.30 0.30 0.31 0.32 0.34 0.33 0.31 0.31 0.30 0.29 0.29 0.29 0.28 0.26 0.25 0.24 0.24 0.25 0.26 0.27 0.24 0.25 0.26 0.26 0.28 0.30 0.31 0.34 0.33 0.32 0.32 0.32 0.35 0.38 0.45 0.50 0.56 0.61 0.56 0.59 0.75 0.92 0.91 0.94 0.99 0.87 0.77 0.74 0.70 0.59 0.53